Flag for Finland Weather past 2 weeks in Helsinki, Finland

45 °F

Light rain. Partly sunny.

Feels Like: 38 °F
Forecast: 41 / 46 °F
Wind: 13 mph from Southwest

Location: Helsinki Malmi Airport

Current Time: Nov 27, 2015 at 2:55:35 PM

Latest Report: Nov 27, 2015 at 2:20 PM

Visibility: 2 mi

Pressure: 29.53 "Hg

Humidity: 93%

Dew point: 43 °F

Location of HelsinkiLocation

Historic Weather in Helsinki — Graph


Helsinki temperature yesterday

Maximum temperature yesterday: 43 °F (at 11:50 PM)
Minimum temperature yesterday: 34 °F (at 12:20 PM)
Average temperature yesterday: 37 °F

Past Weeks' High & Low Weather Summary

High46 °F (Nov 14, 4:50 AM)100% (Nov 12, 4:50 PM)30.01 "Hg (Nov 12, 4:50 PM)
Low19 °F (Nov 24, 12:20 AM)69% (Nov 23, 12:50 PM)29.06 "Hg (Nov 21, 12:20 AM)
Average38 °F90%29.54 "Hg
* Reported Nov 12 1:20 PM — Nov 27 1:20 PM, Helsinki, Weather by CustomWeather, © 2015

Note: Actual official high and low records may vary slightly from our data, if they occured in-between our weather recording intervals... More about our weather records


Helsinki weather history for previous 24 hours

Time TempWeatherWind HumidityBarometerVisibility
1:20 PM
Fri, Nov 27
45 °FLight rain. Partly sunny.12 mph93%29.53 "Hg6 mi
12:50 PM45 °FPartly sunny.9 mph93%29.53 "HgN/A
12:20 PM45 °FPartly sunny.12 mph87%29.56 "HgN/A
11:50 AM45 °FPartly sunny.12 mph87%29.53 "HgN/A
11:20 AM45 °FPartly sunny.13 mph87%29.56 "HgN/A
10:50 AM45 °FPartly sunny.13 mph87%29.56 "HgN/A
10:20 AM45 °FPartly sunny.15 mph87%29.56 "HgN/A
9:50 AM45 °FPartly sunny.15 mph87%29.53 "HgN/A
8:50 AM45 °FPartly sunny.16 mph81%29.53 "HgN/A
8:20 AM45 °FPassing clouds.17 mph81%29.53 "HgN/A
7:50 AM45 °FOvercast.17 mph76%29.53 "HgN/A
7:20 AM45 °FOvercast.18 mph76%29.53 "HgN/A
6:50 AM45 °FMostly cloudy.20 mph76%29.53 "HgN/A
5:50 AM45 °FPartly cloudy.20 mph71%29.56 "HgN/A
5:20 AM45 °FPartly cloudy.21 mph76%29.56 "HgN/A
4:50 AM45 °FPartly cloudy.20 mph76%29.59 "HgN/A
4:20 AM45 °FPassing clouds.21 mph76%29.59 "HgN/A
3:50 AM45 °FPassing clouds.17 mph76%29.59 "HgN/A
3:20 AM45 °FPassing clouds.16 mph76%29.62 "HgN/A
2:50 AM45 °FPassing clouds.20 mph76%29.62 "HgN/A
2:20 AM45 °FPassing clouds.15 mph76%29.65 "HgN/A
1:50 AM43 °FSprinkles. Overcast.17 mph81%29.65 "HgN/A
1:20 AM45 °FLight rain. Overcast.14 mph71%29.65 "HgN/A
12:50 AM43 °FPassing clouds.14 mph76%29.68 "HgN/A
12:20 AM43 °FOvercast.14 mph76%29.68 "HgN/A
11:50 PM
Thu, Nov 26
43 °FPartly cloudy.13 mph76%29.68 "HgN/A
11:20 PM41 °FPartly cloudy.12 mph81%29.71 "HgN/A
10:50 PM41 °FPassing clouds.13 mph87%29.71 "HgN/A
10:20 PM39 °FPassing clouds.8 mph93%29.74 "HgN/A
9:50 PM39 °FSprinkles. Partly cloudy.6 mph93%29.74 "HgN/A
9:20 PM39 °FOvercast.6 mph87%29.74 "HgN/A
8:50 PM39 °FPassing clouds.6 mph87%29.74 "HgN/A
8:20 PM39 °FSprinkles. Passing clouds.8 mph93%29.74 "HgN/A
8:08 PM39 °FSprinkles. Passing clouds.7 mph93%29.74 "HgN/A
7:20 PM39 °FPartly cloudy.8 mph93%29.77 "HgN/A
6:50 PM41 °FSprinkles. Passing clouds.12 mph93%29.77 "Hg5 mi
6:20 PM39 °FSprinkles. Passing clouds.15 mph93%29.74 "Hg4 mi
5:50 PM37 °FSprinkles. Passing clouds.13 mph93%29.74 "Hg4 mi
5:20 PM37 °FSprinkles. Passing clouds.13 mph93%29.77 "Hg6 mi
4:50 PM37 °FLight rain. Passing clouds.12 mph93%29.77 "Hg5 mi
4:20 PM36 °FSprinkles. Passing clouds.15 mph93%29.77 "Hg3 mi
3:50 PM36 °FSprinkles. Passing clouds.13 mph93%29.77 "Hg3 mi
3:20 PM36 °FSprinkles. Partly sunny.15 mph93%29.77 "Hg4 mi
2:50 PM36 °FSprinkles. Partly sunny.13 mph87%29.80 "Hg4 mi
2:20 PM36 °FPartly sunny.13 mph87%29.80 "Hg4 mi
Weather by CustomWeather, © 2015

See weather overviewHow to use our weather pages